Sparta, WI

2:51 AM CST on February 24, 2017 (GMT -0600)
Sparta-Fort McCoy

Weather History for KCMY - April, 2014

Change the Weather History Date:

Tuesday, April 29, 2014

  Actual Average Record
Temperature  
Mean Temperature 39 °F -  
Max Temperature 41 °F 66 °F 92 °F (1952)
Min Temperature 37 °F 39 °F 23 °F (1958)
Degree Days  
Heating Degree Days 26    
Moisture  
Dew Point 39 °F    
Average Humidity 95    
Maximum Humidity 100    
Minimum Humidity 85    
Precipitation  
Precipitation 0.59 in - - ()
Sea Level Pressure  
Sea Level Pressure 29.59 in    
Wind  
Wind Speed 11 mph (NE)    
Max Wind Speed 18 mph    
Max Gust Speed 28 mph    
Visibility 7 miles    
Events Rain    
Averages and records for this station are not official NWS values.
T = Trace of Precipitation, MM = Missing Value Source: NWS Daily Summary

Daily Weather History Graph

Daily Weather History Graph

Search for Another Location

Airport or City:

Trip Planner

Search our weather history database for the weather conditions in past years. The results will help you decide how hot, cold, wet, or windy it might be!

Date:

Astronomy

Apr. 29, 2014 Rise Set
Actual Time 5:57 AM CDT 8:03 PM CDT
Civil Twilight 5:26 AM CDT 8:35 PM CDT
Nautical Twilight 4:47 AM CDT 9:14 PM CDT
Astronomical Twilight 4:04 AM CDT 9:57 PM CDT
Moon 6:16 AM CDT (4/29) 8:44 PM CDT (4/29)
Length of Visible Light 15h 09m
Length of Day
14h 06m
New Moon, 0% of the Moon is Illuminated
Apr 29
New Moon
May 6
First Quarter
May 14
Full
May 21
Last Quarter
May 28
New

Hourly Weather History & Observations

Time (CDT) Temp. Windchill Dew Point Humidity Pressure Visibility Wind Dir Wind Speed Gust Speed Precip Events Conditions
12:15 AM 41.7 °F 33.1 °F 37.6 °F 85% 29.63 in 10.0 mi ENE 18.4 mph 25.3 mph N/A   Overcast
12:35 AM 41.5 °F 33.2 °F 37.6 °F 86% 29.63 in 10.0 mi ENE 17.3 mph 24.2 mph N/A   Overcast
12:55 AM 41.4 °F 34.3 °F 37.6 °F 86% 29.63 in 10.0 mi East 12.7 mph 27.6 mph N/A   Overcast
1:15 AM 41.4 °F 34.0 °F 37.8 °F 87% 29.63 in 10.0 mi East 13.8 mph 20.7 mph N/A   Overcast
1:35 AM 41.2 °F 34.1 °F 37.8 °F 88% 29.63 in 10.0 mi ENE 12.7 mph 23.0 mph N/A Rain Rain
1:50 AM 41.0 °F 33.5 °F 38.3 °F 90% 29.62 in 7.0 mi ENE 13.8 mph 20.7 mph N/A Rain Light Rain
2:15 AM 40.6 °F 34.3 °F 37.9 °F 90% 29.62 in 10.0 mi ENE 10.4 mph 19.6 mph N/A   Overcast
2:30 AM 40.6 °F 33.8 °F 37.8 °F 89% 29.61 in 10.0 mi East 11.5 mph 20.7 mph N/A   Overcast
2:55 AM 40.3 °F 33.4 °F 37.4 °F 89% 29.61 in 10.0 mi ENE 11.5 mph 17.3 mph N/A   Overcast
3:15 AM 40.1 °F 33.2 °F 37.4 °F 90% 29.60 in 10.0 mi ENE 11.5 mph 21.9 mph N/A   Overcast
3:35 AM 40.1 °F 32.0 °F 37.4 °F 90% 29.59 in 10.0 mi ENE 15.0 mph - N/A   Light Drizzle
3:50 AM 39.7 °F 31.5 °F 37.4 °F 91% 29.59 in 7.0 mi ENE 15.0 mph 19.6 mph N/A Rain Light Rain
4:15 AM 39.6 °F 32.5 °F 37.9 °F 94% 29.58 in 7.0 mi ENE 11.5 mph 17.3 mph 0.03 in Rain Light Rain
4:35 AM 39.4 °F 31.8 °F 37.9 °F 95% 29.58 in 7.0 mi ENE 12.7 mph 19.6 mph 0.06 in Rain Rain
4:55 AM 39.4 °F 33.2 °F 37.9 °F 95% 29.58 in 7.0 mi ENE 9.2 mph 16.1 mph 0.11 in Rain Rain
5:15 AM 39.4 °F 31.8 °F 38.3 °F 96% 29.58 in 7.0 mi ENE 12.7 mph - 0.05 in Rain Light Rain
5:35 AM 39.4 °F 31.8 °F 37.9 °F 95% 29.57 in 10.0 mi ENE 12.7 mph 19.6 mph 0.08 in Rain Light Rain
5:55 AM 39.4 °F 31.4 °F 37.9 °F 95% 29.57 in 10.0 mi ENE 13.8 mph 20.7 mph 0.09 in Rain Light Rain
6:20 AM 39.4 °F 33.8 °F 37.9 °F 95% 29.57 in 7.0 mi ENE 8.1 mph - 0.05 in Rain Rain
6:35 AM 39.2 °F 32.5 °F 37.8 °F 95% 29.57 in 10.0 mi ENE 10.4 mph - 0.08 in Rain Light Rain
7:00 AM 39.2 °F 33.0 °F 37.8 °F 95% 29.57 in 7.0 mi ENE 9.2 mph - N/A Rain Light Rain
7:15 AM 39.2 °F 33.0 °F 37.8 °F 95% 29.56 in 7.0 mi NE 9.2 mph - 0.02 in Rain Light Rain
7:30 AM 38.8 °F 32.6 °F 37.6 °F 95% 29.57 in 7.0 mi ENE 9.2 mph - 0.04 in Rain Light Rain
7:50 AM 38.7 °F 31.8 °F 37.4 °F 95% 29.57 in 10.0 mi ENE 10.4 mph - 0.06 in Rain Light Rain
8:15 AM 38.5 °F 31.1 °F 37.2 °F 95% 29.57 in 10.0 mi NE 11.5 mph 17.3 mph 0.01 in Rain Light Rain
8:35 AM 38.3 °F 30.9 °F 36.9 °F 95% 29.57 in 10.0 mi NE 11.5 mph 16.1 mph 0.01 in   Light Drizzle
8:55 AM 37.6 °F 29.6 °F 36.5 °F 96% 29.57 in 4.0 mi ENE 12.7 mph 18.4 mph 0.01 in   Overcast
9:15 AM 37.4 °F 32.1 °F 36.3 °F 96% 29.57 in 5.0 mi NE 6.9 mph - N/A   Overcast
9:35 AM 37.0 °F 30.4 °F 36.1 °F 97% 29.57 in 5.0 mi NE 9.2 mph - N/A   Overcast
9:55 AM 37.0 °F 31.6 °F 36.5 °F 98% 29.57 in 3.0 mi NE 6.9 mph - N/A   Overcast
10:15 AM 37.0 °F 31.6 °F 36.5 °F 98% 29.57 in 5.0 mi NE 6.9 mph - N/A   Overcast
10:35 AM 37.6 °F 34.0 °F 37.0 °F 98% 29.57 in 4.0 mi NE 4.6 mph - N/A   Overcast
10:55 AM 38.7 °F 34.3 °F 37.9 °F 97% 29.56 in 4.0 mi NE 5.8 mph - N/A   Overcast
11:15 AM 39.2 °F 35.0 °F 38.5 °F 97% 29.55 in 4.0 mi NE 5.8 mph - N/A   Overcast
11:35 AM 39.9 °F 35.1 °F 39.2 °F 97% 29.55 in 5.0 mi NE 6.9 mph - N/A   Overcast
11:50 AM 39.9 °F 34.5 °F 38.8 °F 96% 29.55 in 7.0 mi ENE 8.1 mph - N/A   Overcast
12:15 PM 40.5 °F 35.1 °F 39.2 °F 95% 29.54 in 10.0 mi ENE 8.1 mph - N/A   Overcast
12:35 PM 41.0 °F 35.8 °F 39.6 °F 95% 29.54 in 10.0 mi NE 8.1 mph - N/A   Overcast
12:55 PM 41.2 °F 35.5 °F 39.7 °F 95% 29.55 in 10.0 mi NE 9.2 mph - N/A   Overcast
1:55 PM 41.4 °F 36.2 °F 40.1 °F 95% 29.55 in 10.0 mi NE 8.1 mph - N/A   Overcast
2:15 PM 41.2 °F 36.6 °F 39.9 °F 95% 29.55 in 10.0 mi NE 6.9 mph - N/A   Overcast
2:30 PM 41.0 °F 35.2 °F 39.9 °F 96% 29.55 in 10.0 mi NNE 9.2 mph - N/A   Light Drizzle
2:55 PM 40.8 °F 36.2 °F 39.6 °F 95% 29.56 in 10.0 mi NE 6.9 mph - N/A   Overcast
3:15 PM 40.6 °F 36.7 °F 39.6 °F 96% 29.57 in 5.0 mi NNE 5.8 mph - 0.03 in Rain Light Rain
3:35 PM 40.5 °F 36.5 °F 39.6 °F 97% 29.57 in 5.0 mi NE 5.8 mph - 0.05 in Rain Light Rain
3:55 PM 40.6 °F 37.5 °F 40.1 °F 98% 29.58 in 4.0 mi NNE 4.6 mph - 0.07 in Rain Light Rain
4:15 PM 40.8 °F 37.8 °F 40.1 °F 97% 29.58 in 7.0 mi NNE 4.6 mph - N/A Rain Light Rain
5:35 PM 41.4 °F 39.4 °F 40.8 °F 98% 29.61 in 5.0 mi North 3.5 mph - 0.05 in Rain Rain
5:55 PM 41.4 °F 38.4 °F 41.0 °F 99% 29.62 in 7.0 mi North 4.6 mph - 0.07 in Rain Rain
6:15 PM 41.5 °F 37.8 °F 41.0 °F 98% 29.62 in 7.0 mi North 5.8 mph - 0.02 in Rain Light Rain
6:35 PM 41.5 °F 37.8 °F 41.0 °F 98% 29.62 in 5.0 mi North 5.8 mph - 0.06 in Rain Rain
6:55 PM 41.9 °F 40.0 °F 41.2 °F 97% 29.63 in 10.0 mi North 3.5 mph - 0.07 in Rain Light Rain
7:10 PM 41.7 °F 38.8 °F 41.2 °F 98% 29.63 in 10.0 mi North 4.6 mph - 0.01 in Rain Rain
7:35 PM 41.5 °F 38.6 °F 41.0 °F 98% 29.63 in 10.0 mi North 4.6 mph - 0.01 in   Light Drizzle
7:55 PM 41.5 °F 38.6 °F 41.2 °F 99% 29.63 in 10.0 mi North 4.6 mph - 0.01 in Rain Light Rain
8:10 PM 41.5 °F 39.6 °F 41.2 °F 99% 29.64 in 10.0 mi North 3.5 mph - 0.01 in Rain Light Rain
8:35 PM 41.4 °F 39.4 °F 41.0 °F 99% 29.64 in 5.0 mi NNW 3.5 mph - 0.01 in Rain Light Rain
9:20 PM 41.4 °F 39.4 °F 41.2 °F 99% 29.64 in 5.0 mi North 3.5 mph - 0.01 in   Light Drizzle
9:40 PM 41.4 °F 39.4 °F 41.2 °F 99% 29.64 in 3.0 mi North 3.5 mph - 0.01 in   Light Drizzle
10:15 PM 41.0 °F 38.0 °F 41.0 °F 100% 29.64 in 3.0 mi North 4.6 mph - N/A   Light Drizzle
10:35 PM 41.0 °F 38.0 °F 41.0 °F 100% 29.64 in 4.0 mi NNW 4.6 mph - N/A   Overcast
10:55 PM 41.0 °F 38.0 °F 41.0 °F 100% 29.64 in 3.0 mi North 4.6 mph - N/A   Overcast
11:15 PM 41.2 °F 39.2 °F 41.0 °F 99% 29.64 in 2.5 mi NNW 3.5 mph - N/A   Overcast
11:30 PM 41.2 °F - 41.0 °F 99% 29.64 in 4.0 mi Calm Calm - N/A   Overcast
11:55 PM 41.2 °F - 41.2 °F 100% 29.64 in 4.0 mi Calm Calm - N/A   Overcast